Hourly Data Report for February 04, 2019

TORONTO INTL A
ONTARIO
Current Station Operator: NAVCAN

43°40'36.000" N
79°37'50.000" W
173.40 m
6158731
71624
YYZ

Download Data

Hourly Data (February 2019)
Hourly Data Report for February 4, 2019
TIME
LST
Temp Definition
°C
Dew Point Definition
°C
Rel Hum Definition
%
Precip. Amount Definition
mm

Wind Dir Definition
10's deg

Wind Spd Definition
km/h
Visibility Definition
km
Stn Press Definition
kPa
Hmdx Definition


Wind Chill Definition


Weather Definition


00:00 7.2 4.4 83   21 12 24.1 99.14     LegendNANA
01:00 6.9 4.2 83   21 9 24.1 99.17     Cloudy
02:00 6.7 4.2 84   19 5 19.3 99.15     LegendNANA
03:00 6.5 4.3 86   22 10 16.1 99.17     LegendNANA
04:00 6.8 5.0 88   17 9 9.7 99.14     Fog
05:00 6.5 4.9 90   19 5 9.7 99.19     Drizzle, Fog
06:00 6.5 4.8 89   17 6 19.3 99.21     LegendNANA
07:00 6.3 4.5 88   14 8 16.1 99.21     Mostly Cloudy
08:00 6.0 4.1 87   18 8 12.9 99.24     LegendNANA
09:00 6.1 4.1 87   13 9 12.9 99.23     LegendNANA
10:00 7.6 5.0 84   20 4 24.1 99.21     Mostly Cloudy
11:00 8.8 5.2 78   13 5 24.1 99.14     LegendNANA
12:00 10.2 4.8 69   14 6 24.1 99.07     LegendNANA
13:00 10.5 4.5 66   13 10 19.3 98.99     Cloudy
14:00 11.9 5.4 64   18 10 19.3 98.89     LegendNANA
15:00 12.2 5.6 64   18 12 24.1 98.81     LegendNANA
16:00 12.2 5.5 63   17 9 24.1 98.74     Cloudy
17:00 10.2 4.6 68   15 11 24.1 98.66     LegendNANA
18:00 8.8 4.1 72   16 11 24.1 98.57     LegendNANA
19:00 9.9 5.1 72   17 12 19.3 98.53     Rain
20:00 11.0 5.9 71   21 19 19.3 98.49     Rain
21:00 10.4 6.8 79   21 28 19.3 98.42     Rain
22:00 9.8 7.5 85   22 26 19.3 98.43     Rain
23:00 9.5 7.8 89   23 26 19.3 98.43     Rain

Notes on Data Quality.

Legend

  • E = Estimated
  • M = Missing
  • NA = Not Available*
  • [empty] = Indicates an unobserved value
Date modified: